Regional Weather Roundup
Issued by NWS Sterling, VA

Home | Current Version | Previous Version | Graphics & Text | Print | Product List | Glossary On
Versions: 1 2 3 4 5 6 7 8 9 10 11 12 13 14 15 16 17 18 19 20 21 22 23 24 25 26 27 28 29 30 31 32 33 34 35 36 37 38 39 40 41 42 43 44 45 46 47 48 49 50
000
ASUS41 KLWX 190510
RWRLWX

REGIONAL WEATHER ROUNDUP
NATIONAL WEATHER SERVICE BALTIMORE MD/WASHINGTON DC
100 AM EDT SUN APR 19 2015

Note: "FAIR" indicates few or no clouds below 12,000 feet
with no significant weather and/or obstructions to visibility.
 TC=TEMPERATURE CELSIUS

 * =Non NWS site. Station does not report precipitation (e.g. rain,
    snow, etc.), thunder, or fog.

DCZ001-MDZ009-015-VAZ040>042-051-053>054-190600-
WASHINGTON METRO

CITY           SKY/WX    TMP DP  RH WIND       PRES   REMARKS
WASHINGTON NAT MOCLDY    65  56  72 S5        30.02S
DULLES         MOCLDY    61  46  57 S3        30.02S
ANDREWS AFB    PTCLDY    59  49  68 SW5       30.01S
FT BELVOIR     CLEAR     55  50  83 CALM      30.02S
QUANTICO       CLEAR     60  52  74 W5        30.03S
COLLEGE PARK*  PTCLDY    59  50  72 CALM      30.01F
LEESBURG*      PTCLDY    59  52  77 SW6       30.03S
MANASSAS*      CLEAR     54  52  94 CALM      30.02F
GAITHERSBURG*  MOCLDY    61  46  59 CALM      30.06S

$$

MDZ006>007-011-014-190600-
BALTIMORE METRO

CITY           SKY/WX    TMP DP  RH WIND       PRES   REMARKS
BWI AIRPORT    CLOUDY    65  47  52 CALM      30.00S
MD SCIENCE CTR   N/A     69  48  47 MISG      30.02R
MARTIN STATE   CLOUDY    64  52  63 NW8       30.04R
ANNAPOLIS      MOCLDY    60  51  72 CALM      30.00S
FORT MEADE*    CLOUDY    54  50  87 CALM      30.03S

$$

MDZ012-015-019>023-190600-
MARYLAND EASTERN SHORE

CITY           SKY/WX    TMP DP  RH WIND       PRES   REMARKS
OCEAN CITY     PTCLDY    57  56  96 SW3       30.01S FOG
SALISBURY      PTCLDY    55  52  89 CALM      30.02R
BAY BRIDGE AP*   N/A     63  46  55 CALM      30.01S
EASTON*        MOCLDY    62  58  86 SW5       30.05S

$$

MDZ017>025-190600-
SOUTHERN MARYLAND

CITY           SKY/WX    TMP DP  RH WIND       PRES   REMARKS
PATUXENT RIVER PTCLDY    60  54  80 SW7       30.02S
ST INIGOES     PTCLDY    59  54  83 CALM      30.02S
LEONARDTOWN*   PTCLDY    59  52  77 SW5       30.04S

$$

MDZ003>005-190600-
NORTH CENTRAL MARYLAND

CITY           SKY/WX    TMP DP  RH WIND       PRES   REMARKS
FREDERICK*     MOCLDY    61  46  59 N5        30.07R
HAGERSTOWN APT MOCLDY    65  39  38 NE12      30.05R
WESTMINSTER*   MOCLDY    64  43  45 NE10      30.04S

$$

MDZ501>502-190600-
WESTERN MARYLAND

CITY           SKY/WX    TMP DP  RH WIND       PRES   REMARKS
OAKLAND*       CLOUDY    57  41  54 NE3       30.10F
CUMBERLAND*    CLOUDY    63  43  48 CALM      30.08S

$$

VAZ025>031-190600-
SHENANDOAH VALLEY

CITY           SKY/WX    TMP DP  RH WIND       PRES   REMARKS
WINCHESTER*    PTCLDY    55  45  67 NW3       30.03S
FRONT ROYAL*   NOT AVBL
LURAY*         FAIR      54  50  87 CALM      30.05R
NEW MARKET*    FAIR      51  48  90 CALM      30.05R
STAUNTON*      CLEAR     55  48  78 S5        30.07S
WAYNESBORO*    NOT AVBL

$$

WVZ021-048>050-054>055-190600-
EASTERN WEST VIRGINIA PANHANDLE

CITY           SKY/WX    TMP DP  RH WIND       PRES   REMARKS
MARTINSBURG    MOCLDY    56  49  77 SW3       30.03
PETERSBURG*    PTCLDY    50  43  78 CALM      30.07

$$

VAZ036>039-050-190600-
CENTRAL FOOTHILLS

CITY           SKY/WX    TMP DP  RH WIND       PRES   REMARKS
CHARLOTTESVILL PTCLDY    60  50  69 CALM      30.04R
CULPEPER*      CLEAR     55  52  88 CALM      30.04S
ORANGE*        PTCLDY    54  50  87 CALM      30.05S
GORDONSVILLE*  FAIR      52  49  90 CALM      30.04R
WARRENTON*     FAIR      54  51  89 CALM      30.03S

$$

VAZ055>057-190600-
NORTH AND CENTRAL PIEDMONT

CITY           SKY/WX    TMP DP  RH WIND       PRES   REMARKS
FREDERICKSBRG* PTCLDY    58  51  77 CALM      30.02S
STAFFORD*      CLEAR     53  50  89 CALM      30.06F

$$

NCZ024-NYZ072-PAZ021-071-VAZ022-071-190600-
OTHER REGIONAL OBSERVATIONS

CITY           SKY/WX    TMP DP  RH WIND       PRES   REMARKS
NEW YORK CITY  PTCLDY    63  25  23 N8        30.10R
PHILADELPHIA   MOCLDY    66  26  22 N12       30.07R
PITTSBURGH     CLOUDY    61  38  42 NE9       30.06F
ROANOKE        MOCLDY    66  51  58 CALM      30.04S
RICHMOND       MOCLDY    61  54  77 CALM      30.03S
RALEIGH        CLOUDY    68  63  84 SE9       30.02S

$$

ANZ530>537-190600-
MARINE OBSERVATIONS

STATION/POSITION TIME  TEMP    WIND        PRES
                       AIR SEA DIR/SP/G
                 (UTC) (F)     (DEG/KT/KT) (MB)
THOMAS PT LIGHT  0500   63 53  200/  5/  5 1016.7R
BALT KEY BRIDGE  0400   66     260/  3/  4 1015.9R
COVE POINT       0400   65     240/  9/ 10 1016.2R
LEWISETTA        0400   62 61              1016.1F
SOLOMONS ISLAND  0400      56                N/A
PINEY POINT      0400          210/  4/  4   N/A

$$



USA.gov is the U.S. government's official web portal to all federal, state and local government web resources and services.